Location: Emporia
(38.4040°N, 96.1810°W)
Time: 12:57:06
(UTC-05:00)

ISS - Visible Passes

Search period start: 20 October 2014 00:00
Search period end: 30 October 2014 00:00
Orbit: 413 x 416 km, 51.6° (Epoch: 20 October)

Date Brightness Start Highest point End Pass type
(mag) Time Alt. Az. Time Alt. Az. Time Alt. Az.
20 Oct -1.0 20:17:36 10° NNW 20:19:00 15° N 20:19:00 15° N visible
21 Oct -1.0 19:28:59 10° NNW 19:30:36 13° NNE 19:31:59 11° NE visible
21 Oct 0.0 21:04:38 10° NW 21:04:51 11° NW 21:04:51 11° NW visible
22 Oct -1.8 20:15:44 10° NW 20:17:53 27° N 20:17:53 27° N visible
23 Oct -1.7 19:26:54 10° NNW 19:29:33 21° NNE 19:30:58 17° ENE visible
23 Oct -0.2 21:03:11 10° WNW 21:03:51 15° WNW 21:03:51 15° WNW visible
24 Oct -3.2 20:14:00 10° NW 20:17:02 71° NW 20:17:02 71° NW visible
25 Oct -2.9 19:24:55 10° NW 19:28:09 46° NE 19:30:20 18° ESE visible
25 Oct -0.1 21:02:21 10° W 21:03:14 14° W 21:03:14 14° W visible
26 Oct -1.6 20:12:33 10° WNW 20:15:32 31° SW 20:16:43 24° S visible
27 Oct -2.7 19:23:07 10° WNW 19:26:24 59° SW 19:29:40 10° SE visible
28 Oct 0.0 20:12:39 10° WSW 20:13:24 11° SW 20:14:08 10° SW visible
29 Oct -0.5 19:21:48 10° W 19:24:18 20° SW 19:26:46 10° S visible
